GFSWCAN_con_3kmhel_057.txt.gz
Helicity
20 15 165 264 227 198 164 96 93 92 111 96 30 36 66 -54 -136 133 41 108 199 212 238 283 253 169 177 105 138 93 166 190 204 219 174 176 190 194 191 205 266 269 285 233 244 222 138 169 250 223 124 185 174 201
263 335 307 267 177 98 76 80 80 69 64 47 33 -36 56 8 102 85 130 100 145 196 292 170 256 288 111 143 165 137 153 153 185 213 205 199 222 264 232 210 269 245 205 209 179 146 208 116 101 132 149 149 122 184
145 166 130 103 91 92 76 61 57 55 29 7 -39 -47 -6 14 53 128 124 -44 141 185 322 168 138 138 116 110 124 148 158 121 171 158 198 197 202 241 225 231 223 218 223 257 235 196 199 184 184 187 195 201 191 180
61 72 77 81 82 71 56 42 33 9 23 20 7 33 42 52 92 143 102 -34 55 425 228 193 179 160 78 36 55 121 99 152 153 224 209 180 165 156 174 250 101 150 273 304 295 255 257 217 201 239 282 277 295 292
1 13 22 24 31 47 55 59 51 64 53 21 28 -6 50 63 120 287 171 -170 -124 278 180 197 101 153 90 33 8 61 158 158 220 190 158 151 187 190 261 296 188 151 278 278 223 229 228 182 229 251 302 286 268 317
14 7 -5 -16 -12 -20 -3 32 42 11 34 11 8 52 74 144 186 294 61 -102 -121 33 217 132 38 39 25 36 81 100 201 193 172 140 158 174 221 203 174 200 200 217 210 193 158 215 278 372 391 324 329 305 306 324
22 2 -12 -30 -37 -48 -29 33 36 25 8 13 59 107 122 130 204 218 50 -63 72 25 94 194 107 50 91 182 225 265 314 264 199 204 135 201 195 208 261 193 240 270 255 264 320 470 411 360 327 373 377 376 393 419
-14 -18 -13 -43 -25 27 89 92 53 47 53 66 107 143 148 146 113 161 251 20 217 114 75 121 205 191 115 200 208 266 281 324 279 249 266 252 276 308 261 179 181 194 262 318 326 255 360 449 461 431 412 428 484 458
-31 -12 -24 51 69 66 66 77 97 81 65 82 108 144 211 165 97 194 163 129 178 124 30 -63 39 88 32 134 260 267 257 270 288 269 320 295 350 385 369 85 171 175 225 296 371 356 384 446 417 414 438 437 470 415
-6 -12 40 41 53 66 83 102 96 99 120 99 167 202 132 90 -32 66 307 157 68 20 -17 -293 -106 -41 37 19 340 267 239 166 206 254 236 140 350 89 129 89 179 178 191 211 298 326 356 379 384 373 373 370 378 368
-17 4 12 15 37 42 51 52 38 32 66 86 47 47 86 60 184 209 173 120 74 -30 -16 72 23 -34 62 124 117 202 221 188 129 106 121 100 128 175 170 252 279 238 247 281 308 340 294 308 314 353 372 386 378 352
-28 -8 6 14 10 -14 -10 8 11 4 -21 -113 90 108 138 151 38 33 102 72 67 81 88 126 193 76 116 141 164 204 178 192 159 158 192 160 150 185 263 317 334 321 333 318 250 244 256 246 291 344 374 385 347 341
-68 -52 -52 -61 -60 -63 -75 -81 -57 -147 -200 179 146 111 178 220 91 35 40 99 71 101 114 112 151 179 175 183 151 135 136 163 138 200 196 171 143 225 283 324 373 313 292 265 267 280 299 303 305 329 348 308 319 295
83 79 3 -41 -48 -29 -167 -200 -228 18 267 72 104 78 34 51 87 125 89 95 55 80 135 192 207 160 212 246 200 162 163 168 188 178 152 125 163 219 244 253 271 237 232 247 251 279 309 317 338 312 270 233 245 228
25 25 -43 -68 -25 -51 -35 22 113 122 87 -12 41 32 16 66 123 107 94 107 133 103 145 194 200 171 203 142 172 122 113 135 142 128 133 113 198 175 195 217 226 221 231 264 272 300 277 273 271 249 208 209 224 223
97 100 111 8 -7 1 51 90 47 202 167 40 35 75 87 84 119 123 126 123 123 88 89 96 158 190 213 145 165 215 198 120 121 130 74 126 163 188 195 195 192 218 252 268 266 242 216 193 208 224 209 197 191 179
76 79 120 36 32 67 65 64 72 60 61 44 71 116 95 86 120 109 108 106 130 80 98 91 95 116 90 125 135 130 128 110 103 141 162 178 195 163 208 221 217 231 231 206 179 172 205 216 225 221 214 172 171 176
288 224 101 50 38 68 72 54 42 47 92 136 116 155 156 165 146 142 131 167 129 111 91 94 75 116 111 121 125 127 134 141 152 138 135 168 216 230 214 197 168 154 152 156 175 195 204 208 205 197 190 193 212 181
287 185 124 56 62 83 78 94 97 74 124 138 154 140 139 175 218 158 148 149 188 139 114 119 101 123 127 167 190 210 154 138 152 184 219 205 186 192 181 177 185 200 211 207 219 250 272 257 246 235 237 232 219 200
150 288 242 239 138 96 104 117 166 138 153 160 190 238 169 172 198 218 239 246 180 124 135 171 222 253 254 261 229 179 164 139 142 195 201 198 202 226 215 191 189 208 240 256 271 275 291 326 318 310 295 266 243 224
86 160 141 122 229 135 95 133 147 195 194 176 119 147 174 267 336 338 344 332 315 294 310 306 301 274 235 218 199 175 200 163 171 153 136 199 210 224 222 226 239 254 261 253 276 296 302 277 245 233 240 246 218 194
14 45 64 102 47 84 111 207 198 230 230 252 267 244 258 304 379 404 383 478 396 416 314 270 252 224 225 247 215 203 176 221 246 259 255 211 229 244 253 228 230 261 268 247 227 224 222 208 194 192 205 209 193 185
-1 17 16 31 44 67 117 159 220 231 231 250 233 254 257 241 217 137 204 335 331 267 172 127 126 134 156 189 230 294 264 233 247 229 225 236 249 246 258 268 239 220 220 224 204 203 204 199 195 182 162 149 142 154
25 17 24 23 47 59 56 132 124 158 173 190 188 201 174 142 126 174 231 258 244 171 155 158 130 137 165 223 254 238 222 174 198 235 204 181 207 222 208 217 234 238 205 182 186 186 182 173 166 158 152 153 161 158
14 37 43 66 56 69 95 99 106 96 142 173 157 152 127 86 126 160 166 156 165 186 176 136 134 143 158 162 168 188 204 153 144 187 208 139 108 122 152 154 164 168 138 138 148 138 137 129 139 142 141 150 180 197
22 25 32 56 86 89 88 122 137 184 170 162 146 125 135 142 144 157 152 152 144 145 145 126 109 115 141 108 103 117 110 86 96 163 175 148 125 96 111 122 116 122 99 74 82 105 112 112 119 137 125 116 127 143
70 84 82 57 50 65 114 154 158 164 166 170 166 165 157 165 151 141 124 117 81 66 61 66 58 64 61 69 75 79 87 95 90 65 75 124 127 114 84 96 104 67 58 75 74 76 84 91 104 115 112 117 113 109
85 104 132 127 103 103 84 111 126 135 123 116 102 143 125 119 114 88 69 36 44 53 64 72 76 70 75 68 58 64 75 59 55 46 47 88 107 109 102 87 91 115 96 88 81 77 74 72 72 73 85 84 88 106
56 21 22 100 67 72 93 87 76 69 56 44 53 56 57 73 88 84 77 71 70 57 63 58 70 62 88 119 150 143 113 75 82 98 91 75 83 76 81 76 85 93 91 93 89 84 80 81 77 68 69 75 84 100
26 5 24 54 56 56 63 43 36 52 70 43 40 77 180 150 147 114 108 111 103 90 77 81 65 74 74 78 80 97 83 70 59 39 47 45 33 38 51 57 66 66 76 88 94 104 129 135 128 130 131 126 124 121
-33 -9 8 12 9 -36 -58 -33 51 80 72 104 104 113 110 94 141 141 110 71 54 65 88 94 101 75 73 66 43 46 39 33 40 31 28 33 40 41 49 59 66 80 97 107 113 117 111 106 106 106 114 124 134 140
-18 -14 -10 -15 -25 -42 -31 10 14 12 23 51 57 55 66 71 71 58 61 52 68 75 63 56 67 56 22 6 13 13 30 30 42 42 43 57 61 63 74 84 96 106 115 122 122 118 115 111 102 102 109 113 116 124
-1 26 36 28 17 4 -5 32 39 35 44 41 46 48 49 45 42 25 34 44 36 34 27 18 17 25 50 46 44 34 32 29 31 52 78 76 77 83 91 98 106 111 117 122 121 125 130 124 121 118 105 102 106 113

GFSWCAN_con_3kmhel_060.txt.gz
Helicity
31 16 31 11 22 31 29 413 402 341 186 140 132 125 190 110 131 31 -88 208 95 188 411 193 245 211 196 137 186 113 102 172 211 199 186 266 203 167 190 189 237 272 269 282 314 269 175 188 279 221 123 134 161 195
-8 114 78 37 4 196 497 323 262 124 113 122 131 131 145 86 89 107 -111 5 314 100 255 153 190 265 120 80 153 148 112 121 188 257 259 240 258 232 207 196 213 230 217 215 199 165 195 153 166 176 156 149 154 216
132 77 196 465 448 236 263 141 98 100 123 131 120 148 142 73 12 120 172 12 188 142 185 196 144 104 117 132 182 176 146 125 145 214 178 205 217 257 222 222 228 194 205 207 207 199 182 160 144 166 177 171 196 186
94 100 105 111 111 126 118 102 118 137 148 163 148 113 92 -3 -11 89 51 -37 210 79 242 225 153 177 144 99 95 122 92 105 97 179 197 192 180 160 173 201 203 192 221 226 220 191 129 141 197 195 243 250 283 292
87 87 76 66 69 82 89 88 94 104 99 89 72 101 94 17 23 42 62 -23 97 358 159 324 224 141 92 71 72 50 76 117 114 146 181 161 166 163 189 197 203 210 223 251 312 234 189 176 234 230 287 282 258 315
26 41 52 44 39 40 48 54 40 17 19 34 46 54 26 48 22 212 76 -48 -206 134 179 410 202 116 77 33 26 62 120 157 140 121 130 168 155 158 70 75 97 160 209 226 222 118 194 272 339 314 352 309 315 311
25 20 12 11 24 32 20 9 12 -11 -45 -49 -36 -2 26 34 148 158 68 -83 -57 20 232 240 285 125 101 35 68 113 164 181 172 157 147 149 179 213 190 72 109 154 210 244 187 251 249 202 244 331 392 403 405 415
-12 -16 -23 -29 -15 13 24 19 32 -23 -32 -46 -87 14 6 62 103 145 61 -38 -153 -73 151 323 254 165 147 64 71 104 180 233 202 194 220 219 213 207 137 199 168 148 262 339 325 241 214 349 419 426 399 410 466 439
-24 -29 -45 -44 24 43 -4 -29 16 -12 -99 -10 33 77 210 144 238 154 -13 -21 49 66 169 207 279 242 149 45 34 124 196 236 213 235 247 214 195 104 131 106 131 180 185 187 266 245 272 373 401 408 426 427 474 435
12 26 87 63 58 53 20 8 -21 11 21 92 229 272 225 144 29 65 178 106 84 47 57 91 123 195 121 66 17 124 201 206 189 226 221 233 181 244 216 155 122 193 225 228 185 145 234 251 280 294 340 369 414 422
31 32 53 49 22 -7 -29 -26 -14 -27 18 246 194 135 120 104 214 170 59 76 43 42 -12 -72 -33 -2 24 43 3 -9 146 186 163 169 259 221 144 207 188 168 209 229 170 139 125 168 146 257 343 431 469 497 471 347
44 49 34 41 50 40 19 17 76 76 139 128 128 164 116 95 220 127 80 73 89 48 -16 -43 31 77 -44 11 40 43 113 261 168 150 230 156 81 81 169 207 215 223 224 234 240 327 345 378 355 403 458 365 322 362
-21 -15 -11 -19 -6 12 23 59 5 75 149 240 146 70 78 153 176 126 158 207 66 -13 -40 7 83 82 104 120 59 80 75 140 114 117 115 91 61 113 181 228 304 330 327 318 317 319 334 359 397 309 313 305 351 343
-27 -33 -40 -46 -58 -37 -26 -60 -25 19 74 31 25 77 113 111 145 135 121 95 70 50 80 147 221 160 145 168 135 71 83 71 96 112 102 103 122 148 186 220 261 246 232 234 237 251 286 256 273 301 329 260 272 269
-46 -52 -73 -66 -73 -70 -110 -162 -179 82 40 105 108 77 72 52 82 88 95 81 100 75 122 124 203 185 169 81 88 94 63 66 50 70 90 125 154 186 212 214 235 232 204 183 143 189 233 254 281 280 239 225 228 225
-148 -138 -107 -141 -166 -157 -159 -157 -37 59 136 81 21 101 159 146 173 186 186 164 174 159 176 146 80 132 116 116 115 119 116 75 74 108 113 158 170 169 193 199 187 180 187 212 226 245 252 246 233 216 202 206 215 206
-151 -55 -37 -14 -7 -38 -26 35 79 71 50 44 75 152 142 135 150 142 147 186 188 138 109 99 93 98 145 149 177 172 167 161 153 81 92 105 141 160 176 184 170 179 208 229 236 227 221 195 210 226 242 210 209 206
93 65 177 194 119 177 125 48 58 29 96 136 105 139 127 136 149 127 145 176 83 72 97 95 108 157 186 184 179 175 112 102 140 157 145 145 174 170 160 177 186 202 211 197 190 190 202 212 224 207 197 193 215 206
157 49 143 130 76 10 17 28 29 23 84 124 139 190 150 161 226 202 194 194 176 160 117 105 111 139 145 146 156 194 174 134 154 206 241 227 193 200 215 215 196 190 199 204 215 220 232 244 218 204 206 208 216 216
139 164 48 17 39 38 42 49 70 63 79 72 104 165 156 171 203 231 263 257 189 139 139 131 168 186 185 205 209 220 193 146 140 222 284 290 230 232 221 190 188 189 211 218 236 227 226 251 243 240 241 231 217 218
-30 10 9 8 96 106 83 109 134 158 125 118 59 111 121 206 293 302 326 317 304 235 295 295 292 306 270 246 222 196 230 199 211 163 139 210 217 216 210 207 212 212 212 202 210 223 222 199 182 184 190 191 176 170
9 23 14 44 43 99 116 147 163 196 200 206 217 190 221 313 347 368 449 492 425 456 400 369 320 258 255 281 244 225 186 201 209 218 216 201 235 233 229 193 200 224 229 206 191 191 191 182 178 182 185 184 177 176
-8 4 7 25 25 39 58 115 180 203 189 209 194 211 216 213 185 140 211 401 404 385 269 198 182 166 170 186 228 271 238 211 233 222 208 206 211 203 214 238 208 186 187 190 164 166 171 171 174 165 156 154 152 160
15 5 -3 -0 27 21 7 78 72 94 120 146 157 161 164 137 116 182 266 301 287 214 193 158 125 141 180 239 276 267 230 165 188 231 193 163 187 201 180 179 186 180 146 124 135 137 141 138 135 131 139 137 151 150
-5 -13 -13 -0 6 16 35 50 86 84 124 139 121 111 108 88 127 158 181 189 193 192 175 153 159 167 178 182 189 206 208 155 149 189 198 124 75 84 117 119 130 134 98 102 117 114 118 122 129 127 123 125 141 139
15 9 3 18 24 31 47 75 104 158 139 126 122 102 113 118 134 151 147 142 155 164 174 170 154 155 192 165 149 161 126 92 91 143 143 124 95 61 61 73 74 90 83 55 70 90 92 91 101 114 105 98 104 111
29 41 38 47 28 46 87 121 128 132 126 124 119 132 127 148 136 128 144 153 133 126 95 96 86 103 97 100 92 94 94 91 77 47 44 90 99 89 70 68 75 47 42 62 70 64 69 71 70 66 70 83 83 86
52 69 92 89 100 101 83 108 117 120 107 106 104 148 123 123 120 137 126 99 75 69 83 89 78 61 66 67 59 52 58 42 42 39 46 79 76 66 65 56 58 76 64 59 61 65 64 71 80 90 95 94 94 99
46 9 27 107 69 72 85 84 80 63 42 43 59 64 60 81 98 95 86 66 45 47 66 73 88 65 93 110 126 116 87 48 57 80 72 46 49 58 51 46 53 64 76 86 93 111 122 111 104 92 97 90 86 93
36 4 32 67 69 58 46 32 31 42 47 32 34 73 185 164 156 112 99 85 75 70 53 55 52 72 65 71 78 99 82 54 39 17 27 31 18 18 38 47 55 65 76 80 80 80 101 114 119 123 126 128 134 132
-38 -2 12 8 12 -30 -81 -72 19 79 68 113 117 137 121 97 127 124 109 71 62 73 95 101 101 70 66 59 42 42 44 33 33 27 26 24 22 27 34 44 51 63 71 83 88 94 99 107 109 110 120 130 121 115
-22 -13 -8 -11 -28 -72 -38 7 10 17 18 39 53 56 67 67 66 51 55 53 75 83 60 51 59 48 18 3 3 4 16 16 18 23 28 32 34 32 38 49 65 78 84 89 92 100 111 114 112 117 124 120 117 109
15 31 27 24 9 6 -10 29 38 39 46 42 37 39 41 43 41 22 32 48 50 44 38 31 27 19 13 17 17 13 8 8 8 21 38 41 40 39 48 57 65 75 88 91 95 105 111 115 115 113 113 124 121 118

GFSWCAN_con_3kmhel_063.txt.gz
Helicity
-13 1 18 26 69 73 42 70 61 99 42 284 415 290 191 137 97 317 341 186 271 228 161 200 242 215 167 234 251 219 254 135 213 143 134 150 50 155 139 249 166 241 225 219 240 198 145 200 317 227 210 149 98 141
78 46 19 0 -2 19 35 66 77 60 86 401 411 234 148 107 171 332 296 200 78 232 233 124 185 274 126 115 227 160 132 153 199 170 161 145 125 130 176 121 130 147 168 179 193 192 198 113 176 231 186 133 114 178
76 22 -8 -11 8 32 44 36 28 133 443 423 288 129 103 103 121 230 273 232 223 145 160 103 96 85 149 178 226 217 152 121 170 220 154 157 159 209 168 175 226 212 181 203 159 131 153 152 145 186 175 136 141 208
175 180 119 146 94 52 56 197 364 446 298 194 126 144 140 144 266 302 236 80 241 259 93 31 159 150 97 146 168 188 133 133 115 146 180 178 128 169 134 149 196 206 243 230 212 131 147 99 111 157 173 173 222 256
74 87 91 191 258 298 316 281 233 161 123 129 156 178 180 218 236 224 142 -188 4 214 -93 95 186 190 86 108 133 152 163 164 148 109 131 159 155 160 175 198 207 226 195 214 190 95 142 146 172 333 196 201 229 322
55 54 69 102 120 126 133 147 154 166 188 224 192 141 168 224 171 193 -84 -265 -128 215 92 125 199 166 118 76 86 127 162 153 164 135 102 100 119 148 135 155 163 157 204 209 166 114 187 162 237 204 235 266 269 304
39 47 67 75 78 86 99 108 143 171 174 176 129 84 75 124 208 44 -179 -145 -136 205 100 183 217 154 153 118 147 134 105 105 120 125 110 72 104 161 130 114 157 169 171 153 154 132 178 169 158 231 310 326 375 379
-23 -2 14 22 43 52 49 59 68 81 99 90 58 36 46 46 96 113 69 -3 69 185 99 212 166 140 131 153 129 104 111 119 117 144 166 186 172 159 124 130 200 194 183 195 201 187 167 177 226 300 320 328 404 399
-25 -32 4 16 14 13 -6 -35 -71 -55 -12 22 17 20 53 75 46 196 -29 56 85 50 50 227 372 188 155 145 104 89 84 80 114 167 175 170 216 173 154 143 138 113 121 135 184 185 181 188 255 283 345 346 374 379
-40 -52 -61 -20 -5 27 2 1 -52 -77 -63 -69 -40 -73 -41 34 64 43 82 34 110 103 59 178 228 201 162 129 118 79 46 56 99 156 208 219 161 184 159 153 119 101 104 94 134 163 197 172 208 235 236 257 296 301
67 43 14 32 20 17 34 23 0 -57 -63 80 91 78 172 104 154 82 61 125 142 51 71 92 92 88 166 90 80 85 25 18 59 320 257 184 145 176 223 227 204 161 116 161 187 153 259 191 227 220 262 295 380 406
55 67 35 20 21 28 13 -5 46 91 168 169 114 137 262 186 62 72 100 121 92 70 64 53 151 171 175 171 137 78 6 71 49 213 208 153 144 153 176 213 233 203 155 173 170 132 197 187 226 286 331 398 425 462
47 63 81 47 64 68 32 119 153 141 188 162 164 61 81 96 33 -76 -95 54 107 51 86 96 75 87 94 88 80 35 20 32 65 189 187 178 112 91 17 99 179 159 182 201 220 242 268 282 280 347 402 409 412 417
22 42 50 32 35 44 21 34 88 73 77 45 5 55 53 27 12 13 -12 18 51 66 74 123 138 79 72 70 52 9 20 50 41 61 51 52 88 84 84 141 176 216 247 238 227 225 243 264 308 331 300 268 293 295
-2 1 -6 -9 -44 -106 -145 -51 18 63 5 20 24 39 56 49 66 77 86 110 163 53 54 100 95 79 114 103 94 70 76 80 52 42 32 49 105 113 128 138 173 187 193 222 229 249 251 257 271 283 266 236 216 195
-10 -18 25 5 -47 -119 -149 -181 24 36 -9 50 13 59 109 113 132 154 158 171 232 184 186 127 98 139 184 174 151 126 115 77 65 68 44 72 124 163 181 191 186 188 202 185 192 214 242 252 238 230 220 202 214 219
-64 -104 -91 -101 -206 -187 -205 -33 48 84 17 16 73 176 133 131 172 187 195 201 211 125 139 101 139 230 164 176 182 169 137 104 122 124 127 144 121 132 156 175 181 168 193 224 240 233 217 195 199 223 236 218 225 224
-147 -111 -68 -106 -98 -83 -26 4 34 34 59 99 143 203 181 201 238 275 257 200 77 81 103 73 79 115 109 103 120 192 224 185 166 143 131 147 177 197 205 216 205 212 232 235 222 193 180 177 184 171 182 185 210 208
43 49 78 -9 -33 2 27 35 41 39 60 72 96 117 122 141 202 189 192 180 161 125 84 93 87 110 127 167 182 206 200 102 140 222 302 318 297 294 263 238 248 253 230 191 179 181 185 187 157 143 144 146 177 179
361 225 178 46 -8 -1 20 33 57 35 44 60 118 162 148 150 178 206 239 239 146 77 96 104 141 158 164 172 149 166 149 138 169 288 374 370 300 284 271 210 182 165 188 201 212 189 170 189 184 174 164 158 157 165
159 197 199 128 77 56 21 19 36 65 64 53 22 64 102 184 234 231 286 329 233 225 207 232 231 242 236 219 211 197 246 242 259 210 207 285 260 228 215 206 203 209 208 191 189 201 206 179 152 144 150 157 148 151
-94 -20 16 43 37 34 50 85 74 87 127 86 112 122 143 227 291 292 313 338 280 360 322 285 278 252 273 305 269 253 226 235 222 237 233 199 227 230 230 188 189 207 210 181 157 154 157 152 147 155 163 160 156 155
-54 -59 -37 -15 -15 7 19 59 92 108 110 129 123 141 155 155 150 128 163 347 355 347 290 241 201 166 195 216 239 288 249 210 228 213 200 202 209 198 201 213 178 157 161 165 139 138 140 137 146 138 133 144 149 165
17 -9 -17 -30 -8 -13 -22 45 54 73 78 93 93 94 111 104 102 152 252 297 293 265 258 237 164 196 188 253 293 268 225 166 185 219 179 150 182 200 178 173 166 147 109 79 92 95 103 109 109 119 132 139 147 150
-11 -19 -35 -39 -47 -37 -21 -7 21 39 89 108 97 96 83 67 95 137 176 201 229 250 232 190 172 197 193 187 197 212 211 154 140 182 186 129 75 69 97 99 107 106 75 82 92 90 89 90 99 105 112 119 134 131
2 -17 -19 -26 -20 -12 -3 26 44 96 82 64 63 66 80 91 106 122 131 149 162 166 172 167 141 152 199 178 156 176 161 122 108 159 130 101 82 63 56 66 72 91 83 59 73 83 86 85 89 95 90 95 93 93
-5 0 4 21 -3 16 56 93 101 100 94 91 93 112 116 130 121 131 150 170 161 152 120 127 121 137 135 141 117 109 100 96 79 56 50 89 95 82 65 65 73 50 45 57 63 58 59 60 61 67 67 71 80 82
38 45 59 56 71 67 36 59 76 86 79 78 82 122 105 107 106 149 154 134 98 81 92 103 102 88 81 74 59 54 62 49 50 42 38 66 66 60 62 52 46 49 41 42 50 47 46 53 58 62 68 73 81 94
37 1 20 79 45 54 71 67 56 36 19 32 54 60 61 86 128 131 115 90 68 73 95 96 105 79 93 104 107 93 65 22 45 72 79 54 47 68 48 40 41 46 48 51 52 65 66 67 69 74 75 78 83 90
23 -9 17 53 63 57 41 27 22 17 23 22 25 48 159 138 110 84 71 69 72 74 64 60 52 64 71 77 82 100 85 65 55 32 32 35 23 18 28 32 33 38 40 42 44 43 57 64 66 73 78 85 91 96
-54 -11 10 6 5 -52 -87 -49 0 44 34 85 90 122 113 86 109 115 102 78 65 59 68 83 89 67 60 54 46 45 46 41 43 34 19 17 17 21 25 30 34 37 38 38 42 46 49 55 57 58 65 71 73 82
-19 -9 -8 -17 -43 -70 -11 -6 -5 9 8 28 39 50 55 59 61 45 53 51 59 66 48 46 56 49 26 20 16 20 20 22 19 21 30 30 35 36 35 35 36 36 37 41 43 46 50 49 52 59 64 70 76 81
13 16 15 13 7 -5 -25 17 22 30 42 46 39 37 37 42 41 23 30 35 35 35 32 28 32 30 26 24 25 21 9 9 9 20 34 37 31 30 35 35 34 37 43 47 51 51 57 60 64 67 70 75 78 85

GFSWCAN_con_3kmhel_069.txt.gz
Helicity
-1 35 27 30 38 55 34 46 56 63 64 82 74 90 89 154 91 482 349 238 314 245 137 86 115 84 61 34 100 142 155 186 117 145 160 162 137 70 16 67 156 154 193 182 149 143 128 121 175 137 87 3 38 34
18 29 18 25 0 35 20 56 79 82 63 87 64 78 46 113 144 466 346 237 237 255 193 163 82 139 51 18 75 120 117 187 209 130 150 141 139 124 60 -10 5 78 265 152 140 133 133 102 90 60 65 67 45 47
7 14 5 5 14 0 21 27 100 46 47 66 36 -7 122 46 399 544 335 368 289 221 142 117 82 130 120 22 -1 100 136 92 73 66 89 141 149 124 109 69 82 26 12 87 113 135 88 54 40 44 75 60 59 77
6 -2 46 10 -1 -6 24 28 39 43 57 -22 85 42 53 257 505 477 279 344 279 215 195 97 53 67 47 49 57 196 83 88 47 84 114 125 132 82 78 64 58 75 49 51 52 46 54 75 87 49 19 28 56 84
57 -13 40 29 16 30 45 48 66 71 66 79 48 80 222 466 395 436 287 297 216 155 69 30 54 36 27 50 13 121 254 37 164 142 152 129 110 132 120 126 103 102 84 87 76 23 48 51 127 161 88 81 83 83
112 4 8 4 26 17 36 64 72 59 63 45 84 271 540 394 420 516 404 247 145 155 79 58 75 52 23 40 -46 30 36 137 96 88 80 73 51 77 93 53 36 27 53 76 60 108 96 97 73 79 87 80 73 50
61 146 28 3 14 41 43 69 76 51 70 106 288 414 362 339 368 269 170 100 202 211 106 127 80 68 41 52 19 7 62 118 139 114 127 111 129 162 130 87 66 60 45 98 104 99 74 44 75 63 49 82 99 80
76 90 195 170 131 124 117 153 307 401 429 429 475 367 374 322 306 253 72 91 136 135 100 40 89 27 -10 -24 69 98 63 134 160 178 154 105 107 145 129 59 34 44 75 106 80 74 84 99 59 56 53 54 75 119
131 102 65 116 171 254 346 310 215 284 382 408 381 338 394 306 182 122 9 17 92 163 50 -7 -3 26 85 111 184 116 99 105 147 124 170 155 109 89 72 15 25 32 84 71 105 70 60 71 72 54 21 25 53 100
76 135 74 89 141 135 187 208 248 250 236 235 276 207 198 160 100 50 127 56 54 55 -31 -60 -92 97 22 282 240 110 165 165 159 129 124 129 83 71 91 159 207 223 179 117 98 109 103 77 78 68 91 112 125 163
64 84 89 102 59 61 81 73 60 26 135 245 257 215 98 78 121 93 102 103 78 10 -93 -189 -74 220 53 97 174 117 112 111 97 119 146 112 75 143 292 206 241 234 199 212 209 166 144 123 137 146 153 193 282 370
49 61 65 58 40 -4 -17 -4 132 138 159 169 115 137 68 -7 120 76 86 72 50 10 -28 -39 32 69 45 287 220 206 137 129 80 96 142 121 135 160 202 268 247 271 266 302 267 272 232 258 239 196 183 244 312 342
61 48 33 32 27 25 41 103 96 128 217 209 145 127 126 83 84 68 57 43 -10 -13 -7 27 157 244 289 357 209 200 126 137 64 104 97 89 87 130 147 179 206 237 238 247 254 273 272 307 301 186 181 202 218 264
53 25 5 -24 -65 -59 13 127 77 154 246 108 72 53 80 78 72 101 87 69 28 -23 -25 29 156 197 160 140 178 152 102 52 59 63 70 67 74 104 130 147 177 237 246 256 235 292 317 241 240 232 202 194 207 224
-49 -38 -10 2 26 46 111 163 126 174 117 18 103 122 107 120 98 83 106 39 76 49 16 49 75 34 183 128 96 56 55 53 79 66 63 56 57 77 136 187 218 219 213 223 200 218 221 210 218 249 252 247 255 239
7 33 56 81 164 177 170 74 62 75 33 24 34 62 112 69 95 108 126 72 104 112 83 112 75 35 50 53 61 69 68 67 53 71 72 81 124 129 136 151 158 175 200 205 213 207 211 218 228 239 245 239 211 192
23 50 75 54 36 1 62 -4 -9 -37 -28 26 26 45 52 21 47 79 87 108 184 116 89 103 73 44 27 22 66 99 86 95 90 70 100 122 158 175 183 202 205 198 200 212 214 209 214 199 191 212 228 175 162 156
-14 -1 16 15 -5 -2 32 -6 -90 -124 -45 15 -6 52 16 49 72 82 125 158 122 99 106 68 56 71 66 82 109 142 134 159 182 179 190 216 252 237 193 191 191 194 209 223 227 217 191 164 164 144 131 124 135 139
-72 -65 -52 -10 -5 -12 -45 -60 -69 -6 5 28 37 35 45 57 92 153 183 170 143 159 96 62 10 -3 63 119 211 271 192 202 221 246 270 297 283 258 254 259 259 266 261 235 224 214 202 191 157 134 130 132 144 147
-77 -22 -15 14 -35 -20 -29 -17 8 -6 8 32 48 44 65 115 148 176 230 280 207 166 128 108 88 151 177 227 249 229 129 114 128 209 296 305 276 263 274 249 231 203 199 187 175 148 135 153 156 160 161 159 149 157
67 18 93 60 25 1 -7 1 10 22 25 33 31 40 84 96 144 181 203 244 232 201 226 293 232 129 127 129 137 169 220 188 216 237 257 310 289 264 243 211 186 180 178 157 144 150 155 151 139 136 138 138 131 119
38 43 25 28 16 27 25 49 24 30 40 26 49 67 90 117 169 205 244 331 294 308 237 189 190 147 166 198 199 204 208 251 283 325 329 277 289 264 238 192 165 165 151 136 126 129 135 125 112 109 102 100 117 136
15 -13 -30 -35 -33 -28 -22 -22 -15 -6 -13 1 -3 26 44 57 61 32 88 236 251 259 205 158 153 171 170 187 227 277 245 215 251 256 245 234 221 199 180 162 128 115 120 130 112 103 99 94 101 95 96 103 109 121
-18 -69 -72 -78 -78 -69 -70 -40 -37 -19 -10 -2 13 24 33 35 31 83 154 183 190 182 183 185 138 166 180 244 302 283 231 192 219 233 197 166 172 164 138 130 131 127 106 83 83 83 83 89 94 106 114 129 129 119
-45 -49 -72 -58 -72 -66 -56 -39 -22 -27 -8 2 1 12 8 -4 25 42 71 105 131 176 184 182 184 196 225 256 265 258 239 191 187 205 174 127 96 83 97 95 102 105 75 75 82 83 89 93 103 120 119 111 91 80
-23 -29 -40 -38 -39 -31 -25 -12 2 20 14 15 20 4 5 24 39 64 71 87 114 154 185 185 181 186 217 199 193 216 202 149 119 142 137 117 93 73 71 67 66 82 86 78 76 91 96 93 93 84 66 61 61 51
-7 -1 21 12 -15 2 20 35 40 47 47 50 42 46 49 60 70 88 111 140 140 161 147 151 154 192 187 172 151 140 124 114 103 89 66 81 97 104 89 77 81 72 62 72 75 79 77 65 52 42 41 51 60 55
72 76 82 82 73 55 36 50 64 72 69 63 65 104 106 121 105 96 137 145 139 122 129 141 143 133 124 109 88 78 70 52 43 36 40 65 75 73 74 69 64 65 64 62 60 52 51 47 47 50 52 56 56 50
100 55 45 81 61 80 101 85 79 67 48 53 69 80 74 76 116 127 137 120 106 111 145 141 129 90 88 85 80 71 64 57 60 63 65 58 56 66 52 50 49 44 39 45 54 51 51 50 48 50 55 53 50 49
54 19 49 86 89 88 73 43 51 39 25 32 31 52 88 89 120 115 95 93 103 116 114 103 90 86 87 80 75 79 71 68 76 62 54 65 63 44 38 41 42 42 35 38 36 39 34 31 41 46 52 54 61 54
3 22 42 41 36 35 22 20 5 22 38 53 32 50 48 47 57 60 72 71 69 66 69 78 80 77 74 75 69 58 58 53 64 76 65 51 45 47 45 40 40 36 33 33 30 33 36 37 49 49 56 58 63 61
-5 3 -2 11 6 1 -6 2 12 19 15 30 38 36 42 45 58 45 46 51 58 70 80 68 65 75 68 51 48 53 61 46 47 43 49 49 53 48 45 38 30 26 27 24 29 33 41 43 44 51 54 60 69 70
5 18 20 13 13 16 14 11 24 30 32 41 47 47 52 53 59 53 49 63 84 64 61 67 61 56 53 52 51 44 41 45 48 52 55 57 50 34 19 28 22 24 21 23 31 37 37 39 44 55 59 66 66 69

GFSWCAN_con_3kmhel_072.txt.gz
Helicity
16 28 22 15 31 34 46 48 35 46 105 82 119 86 92 93 100 181 242 375 316 293 191 186 75 28 43 29 83 70 24 130 101 102 87 58 65 71 91 54 84 132 191 185 126 156 110 135 102 50 90 114 29 47
22 33 10 31 11 34 50 63 81 113 101 79 102 62 75 117 129 137 364 315 228 223 261 240 169 117 44 72 63 65 -72 92 160 155 74 110 191 114 126 88 95 67 145 231 184 167 158 87 103 59 169 125 81 124
34 21 16 5 2 29 31 57 79 41 30 69 122 28 77 109 122 181 205 308 227 289 333 245 157 51 64 64 50 50 12 67 100 78 196 165 104 151 135 73 66 3 55 116 273 229 142 89 127 164 136 137 126 104
57 -4 -9 7 23 9 9 36 59 24 16 53 83 13 23 86 93 104 212 328 340 316 309 228 243 169 57 105 98 120 85 120 69 107 53 140 156 128 117 88 45 70 54 -20 78 92 89 155 125 86 39 97 100 83
56 10 -18 -9 8 -1 15 14 28 52 35 49 64 36 76 103 92 155 161 211 343 287 195 188 152 83 76 46 76 98 38 94 68 28 141 131 120 134 91 65 62 72 66 89 106 57 52 36 113 145 122 68 27 45
40 12 9 15 12 17 16 27 32 51 59 56 -1 67 105 90 122 158 202 180 198 334 185 229 152 79 43 57 90 115 -9 51 -7 -40 101 186 103 125 180 102 74 81 69 91 90 108 158 110 75 109 107 134 150 119
49 -3 17 22 27 41 58 55 49 32 51 67 122 152 137 129 228 252 232 275 233 321 124 94 49 48 63 49 102 67 55 25 35 -69 65 80 127 150 136 73 57 25 19 27 57 173 73 60 116 105 78 106 94 123
118 9 10 30 32 13 62 76 70 41 139 167 269 254 205 271 536 420 121 158 191 194 173 104 118 93 69 91 68 90 65 27 -70 19 94 147 112 118 99 57 55 62 109 100 127 146 134 124 88 97 89 82 103 133
193 116 112 132 42 48 74 89 288 358 342 377 437 436 533 493 463 318 176 204 268 157 78 82 88 110 137 93 61 14 138 53 7 31 140 108 153 162 120 58 36 42 56 78 141 105 98 72 103 83 81 99 136 122
53 158 183 308 312 220 239 237 279 233 234 300 358 280 213 213 87 110 165 131 124 104 62 25 70 64 29 138 63 73 120 -5 160 217 185 178 155 134 230 139 105 115 167 149 162 122 122 99 112 134 155 111 111 161
77 51 75 71 152 296 323 277 324 299 271 258 259 204 78 73 160 119 115 103 85 77 65 32 -32 -60 -47 50 106 156 125 98 75 132 127 96 106 184 248 290 173 233 227 286 353 325 221 196 173 225 277 288 331 384
65 55 59 73 106 204 249 270 320 206 174 136 126 150 165 123 91 66 91 94 56 66 -4 12 35 24 6 -63 170 244 105 197 28 118 139 72 141 196 193 274 359 324 343 355 344 358 384 367 304 245 249 280 319 314
75 72 50 46 161 219 251 286 282 224 145 200 149 94 80 59 61 26 31 56 25 34 74 67 45 -6 9 72 127 161 4 92 116 145 118 109 131 178 186 192 265 262 239 251 272 287 315 336 321 328 340 359 307 295
51 67 68 75 111 140 177 180 186 175 164 135 132 110 105 63 82 52 39 50 47 54 46 -26 18 150 153 73 81 24 146 127 164 109 118 121 109 104 125 144 193 236 230 287 320 400 448 391 343 376 273 231 249 249
4 22 25 16 64 26 31 191 191 113 120 104 96 90 78 99 90 76 69 27 128 132 15 52 77 172 356 110 237 81 197 172 135 93 83 66 74 87 131 169 210 248 265 313 330 377 398 423 374 306 258 262 264 242
23 59 115 211 195 89 32 138 161 82 47 79 35 72 88 53 132 80 122 113 139 131 79 11 107 158 194 154 149 169 132 127 86 91 73 80 91 101 125 181 237 265 289 287 275 252 245 246 268 289 293 268 231 204
107 79 115 165 181 77 61 65 48 41 22 87 41 28 44 17 84 126 145 108 150 133 56 50 82 114 117 139 140 112 89 49 49 65 92 149 135 148 172 192 204 206 220 227 246 281 269 232 219 236 233 170 157 153
28 42 53 85 65 19 -6 -24 -72 -54 -18 54 38 54 60 83 104 118 114 148 87 65 52 61 76 78 113 104 77 40 53 103 142 149 185 211 191 215 229 253 257 264 272 253 230 208 181 170 171 127 102 90 106 125
-2 16 43 37 14 -11 -35 -44 -39 7 -29 -1 18 32 33 59 74 85 140 141 118 97 37 25 32 47 41 74 142 180 115 160 209 279 332 313 288 282 311 323 329 316 297 266 257 240 233 218 169 133 127 129 130 87
-9 45 115 92 6 5 -19 -23 -5 -22 -9 -17 -11 -0 9 45 72 88 173 231 152 79 59 38 37 69 70 122 184 149 184 222 259 328 347 301 267 270 279 263 246 217 210 195 188 171 164 173 164 161 140 127 144 181
52 112 91 -10 -41 -39 -15 6 7 8 7 -24 -14 -42 11 68 87 105 163 195 183 110 74 112 90 141 145 218 278 291 284 245 234 240 264 301 270 252 245 224 201 188 178 162 156 141 129 112 100 114 140 153 117 101
32 65 29 12 17 23 22 38 19 32 43 42 59 34 18 -2 -15 15 48 117 -19 22 56 101 103 180 289 261 207 247 244 286 311 317 302 275 286 257 239 206 191 179 154 128 118 121 124 111 102 90 68 86 135 186
67 58 48 23 -11 -19 35 47 42 39 21 36 45 35 50 65 85 80 85 185 206 260 199 202 206 160 178 202 237 269 264 257 264 273 262 255 253 226 194 168 132 117 112 110 90 90 98 100 111 113 118 114 101 99
-11 -92 -95 -93 -100 -95 -75 -77 -60 -48 -49 -44 -28 -9 2 10 20 48 106 124 139 133 180 129 100 156 204 273 313 257 211 180 206 215 186 172 186 176 142 122 116 119 104 87 88 87 86 95 106 108 97 101 110 99
-51 -60 -81 -65 -81 -74 -62 -58 -43 -44 -39 -26 -24 -22 -23 -27 -4 12 38 60 97 127 122 150 154 163 194 222 244 245 239 192 190 193 167 119 97 91 107 119 134 119 71 73 78 78 82 82 91 105 121 112 90 81
-28 -30 -44 -54 -53 -49 -54 -32 -19 1 -2 9 13 -2 -2 15 26 38 35 51 87 128 141 143 146 163 197 192 198 236 212 150 137 184 191 195 130 76 75 78 84 99 100 89 68 80 93 96 94 88 70 83 85 77
-12 -9 16 14 12 28 38 38 39 43 43 43 35 42 42 62 67 64 71 102 114 128 123 130 139 170 168 158 150 148 139 133 118 109 91 101 118 150 112 85 93 79 71 83 91 88 90 88 85 76 69 70 71 66
69 77 81 89 98 74 40 39 44 50 48 39 44 82 81 100 98 78 93 110 116 120 133 146 152 139 133 119 103 90 85 63 44 27 40 78 78 64 63 67 62 67 75 86 82 84 82 83 71 66 65 69 53 44
112 67 44 78 48 66 89 73 68 58 33 32 56 74 68 83 74 97 112 109 100 114 140 143 134 100 105 105 108 110 107 78 68 74 79 70 67 75 63 61 60 58 56 62 75 72 68 57 56 52 49 43 38 41
88 43 65 104 93 76 61 36 61 47 43 33 25 52 77 78 140 81 76 85 98 111 116 115 100 94 95 88 85 93 89 95 123 89 66 73 68 56 57 58 58 56 55 55 52 42 31 28 36 30 39 43 61 52
26 34 56 57 38 32 29 13 30 43 38 39 32 30 16 15 44 64 72 58 59 65 72 79 84 88 82 85 73 58 63 63 79 94 76 65 63 61 55 53 48 40 42 41 39 45 36 22 37 39 53 56 60 55
43 37 13 16 5 -7 -14 -2 22 21 13 29 32 30 18 33 50 42 37 52 56 76 70 60 65 80 71 59 56 69 69 45 48 60 69 61 57 51 46 42 34 36 35 26 31 30 35 35 35 44 45 48 68 63
36 33 25 19 14 15 7 2 33 32 34 45 45 48 57 66 69 53 61 88 106 75 93 89 80 69 61 58 45 39 60 68 76 68 68 66 58 44 25 39 33 31 28 26 26 32 31 36 35 45 43 47 55 64

GFSWCAN_con_3kmhel_075.txt.gz
Helicity
22 20 23 12 25 30 23 47 58 78 102 115 121 97 83 43 62 94 253 316 379 333 270 209 220 171 104 71 112 78 76 54 66 85 198 98 -25 9 -0 18 49 120 111 121 181 207 181 185 132 147 71 50 58 87
4 3 -2 25 19 36 46 49 45 51 60 63 78 98 69 52 40 104 246 362 366 368 197 303 233 160 9 48 102 70 75 45 114 211 193 163 160 90 62 83 94 55 69 130 145 166 241 156 55 156 94 114 115 119
16 15 46 11 31 1 37 51 58 58 67 74 68 54 88 82 86 117 270 203 342 402 476 330 274 237 139 109 111 55 5 47 126 126 119 123 86 151 120 65 162 141 175 126 84 124 214 178 261 283 253 69 123 110
40 57 8 32 -18 15 24 34 44 52 54 76 10 77 136 83 120 192 245 175 344 359 324 225 205 118 135 113 106 76 49 16 78 137 107 82 92 60 80 95 111 152 149 107 48 55 173 114 100 217 261 338 199 64
69 -0 23 29 28 16 9 25 31 39 82 74 83 165 156 96 115 250 161 131 260 376 248 217 223 146 134 123 144 75 65 66 73 135 135 76 -35 49 164 111 109 80 89 108 51 -22 23 70 86 73 7 151 182 103
20 -2 22 -16 22 -7 -12 22 33 41 50 73 154 84 66 111 191 259 143 74 254 334 270 265 183 173 144 89 57 43 19 52 39 68 83 -34 73 51 108 62 104 75 113 87 33 37 122 114 118 119 111 143 173 169
-5 15 15 6 20 -3 -7 17 -3 29 34 90 -2 22 83 105 149 233 175 167 221 315 341 280 217 212 160 106 90 48 55 46 61 20 3 -13 -168 45 -27 50 88 87 64 49 30 96 140 135 112 119 100 122 127 150
11 -9 -6 -8 4 23 8 31 34 39 -0 -19 8 28 42 63 93 61 66 205 210 375 284 175 164 191 239 176 178 123 99 151 125 95 60 -42 -50 20 75 53 96 129 97 67 111 155 158 164 179 128 120 162 236 281
61 23 6 4 20 27 36 53 6 74 78 105 44 76 207 117 140 184 111 135 313 203 183 183 166 150 175 173 118 113 106 104 137 65 39 -74 -269 58 106 109 82 44 26 45 145 158 141 165 136 129 157 172 241 308
124 38 125 111 126 141 104 63 84 105 165 93 379 289 266 170 54 172 200 186 201 208 159 100 108 145 109 139 145 107 84 83 56 82 30 -85 -59 35 282 301 332 281 275 225 294 249 226 181 235 292 255 240 235 253
326 298 227 267 200 226 206 140 34 71 240 365 398 399 323 416 288 181 158 129 116 121 95 103 102 68 54 56 88 100 68 122 125 62 63 14 -53 124 201 397 342 374 408 397 375 351 293 281 286 300 320 317 281 269
274 286 262 267 241 228 272 206 166 223 211 178 220 272 295 223 124 77 116 118 78 59 43 91 114 86 50 51 28 85 81 69 21 20 85 87 40 225 175 209 246 225 251 341 412 445 417 376 326 344 323 317 322 328
169 240 265 301 298 276 246 290 296 177 133 203 194 212 143 120 78 51 66 86 60 50 56 88 123 91 67 58 -27 41 37 17 129 139 106 110 163 129 131 124 143 196 205 254 313 368 379 395 400 404 402 371 374 432
74 114 123 183 217 172 146 162 154 123 116 147 175 164 122 94 71 61 117 98 88 76 57 61 35 60 32 24 44 65 112 90 61 142 174 167 137 140 136 142 138 160 196 278 381 470 553 590 592 540 436 342 402 413
48 52 60 124 162 151 120 168 176 60 54 102 98 101 98 100 89 103 124 65 84 60 36 20 71 78 47 38 77 61 133 147 158 169 159 153 116 126 150 171 212 276 343 418 472 512 522 500 528 517 504 468 402 282
72 113 110 125 187 164 144 129 81 30 35 47 35 30 86 48 110 104 110 117 167 96 -1 54 164 242 161 88 125 179 70 119 189 176 117 110 117 164 213 256 306 341 370 392 419 390 411 436 397 379 334 299 274 249
110 146 186 95 94 172 100 53 41 90 60 43 31 53 47 21 46 60 43 142 177 32 25 105 111 152 139 103 178 84 49 52 55 97 111 110 142 182 205 234 258 274 308 329 323 292 293 246 236 258 244 196 200 204
63 63 71 53 58 52 38 6 -15 -0 50 61 32 26 18 38 67 75 94 159 110 95 49 35 52 112 150 164 124 52 67 105 138 152 167 204 256 260 240 240 238 237 251 250 237 214 188 178 177 139 127 121 145 156
42 48 66 37 -5 -40 -54 -47 -31 10 56 61 76 85 59 62 66 119 141 155 155 93 43 41 43 52 70 120 156 111 79 135 203 256 301 334 332 310 305 303 310 297 286 258 248 249 242 223 180 139 97 81 110 102
36 44 107 38 -13 -6 10 16 29 12 22 39 32 53 75 89 99 142 148 153 122 53 49 38 58 79 86 93 118 82 146 196 247 316 333 336 292 306 286 251 233 222 242 238 237 208 193 197 176 163 173 181 152 126
13 48 57 30 69 40 11 26 28 32 44 40 24 37 67 86 147 156 178 203 125 99 78 91 90 104 128 215 253 231 240 268 298 305 303 356 301 285 273 253 245 234 225 198 178 158 153 137 130 166 190 177 162 163
48 41 -0 32 35 39 49 46 32 45 44 40 48 53 61 95 155 224 283 280 144 146 120 97 131 160 203 260 278 268 240 308 318 331 310 281 294 274 264 224 211 213 195 162 148 150 135 94 97 114 138 166 180 168
54 53 59 70 43 43 68 82 58 45 37 26 16 -1 19 44 40 44 78 209 163 94 76 104 130 143 148 164 217 269 268 283 277 250 257 265 257 226 207 195 156 130 123 112 109 121 129 134 154 123 105 128 139 141
26 -64 -55 -59 -101 -66 -18 -31 27 31 34 29 32 19 5 -29 -42 -43 -38 -8 -24 41 34 31 57 113 176 232 250 239 226 206 213 233 198 182 196 190 159 142 126 112 93 80 91 101 114 137 160 168 155 135 113 116
-53 -79 -93 -96 -113 -92 -79 -67 -57 -48 -33 -41 -24 -41 -44 -38 -22 -15 -5 10 42 27 60 108 123 143 174 203 230 235 234 167 169 190 166 128 116 125 152 169 175 127 63 80 88 84 88 106 126 152 190 161 137 113
-24 -49 -48 -57 -41 -29 -34 -20 -21 -16 -18 -9 -10 -15 -3 9 19 20 21 22 54 67 70 82 98 134 176 166 174 204 176 139 133 201 200 185 84 73 88 106 122 152 131 72 65 89 112 92 78 113 139 143 127 118
-9 -5 1 6 -5 -1 8 4 1 6 1 3 -3 5 15 34 44 45 46 60 76 93 93 95 102 132 133 126 112 115 114 114 114 105 99 131 146 135 98 97 108 92 110 149 138 88 97 127 128 99 95 88 76 59
27 22 39 40 51 57 21 31 33 28 21 14 24 54 56 68 64 53 63 75 87 98 132 143 125 106 99 82 69 64 64 42 45 53 84 103 84 81 88 85 78 89 78 93 119 139 144 123 110 100 64 52 40 49
83 51 34 73 48 54 67 41 30 20 -8 2 29 41 42 56 45 46 52 48 48 68 94 103 112 93 103 112 129 140 134 75 39 76 91 77 69 73 62 70 94 62 58 73 88 84 81 71 73 66 63 58 60 62
76 37 51 85 80 49 24 -6 6 3 11 9 10 52 94 92 119 63 63 81 95 108 99 76 54 64 74 75 86 118 137 132 121 78 66 61 52 65 80 69 68 70 73 60 51 58 60 56 49 35 57 70 60 54
28 37 50 32 4 -55 -59 -35 1 29 22 3 -11 -2 -20 -12 22 59 64 46 48 51 63 92 113 106 88 86 55 47 72 88 104 99 86 72 69 70 59 56 65 61 64 71 65 60 64 75 66 60 62 49 47 59
36 25 -0 -10 -46 -63 -49 -42 -9 -6 -8 2 -10 -3 -3 29 42 33 30 63 52 61 57 58 66 64 50 53 68 66 58 55 76 87 104 88 83 61 51 42 52 58 60 64 50 47 49 52 52 51 53 57 45 43
13 3 -4 1 -14 -27 -43 -18 14 19 32 37 35 32 42 55 59 41 56 83 73 106 99 85 82 91 66 43 36 36 49 50 56 69 69 68 68 76 83 80 82 68 57 53 50 42 43 51 44 38 36 39 48 54

GFSWCAN_con_3kmhel_078.txt.gz
Helicity
26 25 17 14 24 33 39 43 47 53 53 52 57 55 56 58 52 115 132 234 301 298 232 234 261 212 175 113 111 40 81 71 115 96 52 39 11 -13 -74 4 -61 29 64 203 175 140 67 123 69 149 131 137 93 102
16 18 4 2 1 -9 -7 -0 26 54 66 71 68 69 64 59 54 75 159 138 287 297 192 294 159 233 112 -4 86 61 64 64 102 132 127 93 70 11 -74 -96 -11 27 88 63 65 30 48 125 65 191 335 200 207 168
10 14 15 15 36 39 19 25 30 45 62 58 55 74 94 78 66 70 162 183 256 302 190 233 205 241 201 90 91 68 82 66 101 103 92 101 88 53 -100 -160 -100 -11 93 92 128 70 23 52 97 69 150 217 91 187
30 36 45 44 26 13 17 46 50 49 51 67 61 49 41 85 71 74 177 197 208 339 288 164 256 174 77 160 124 83 31 63 32 87 106 112 42 86 13 -30 -35 38 55 70 87 53 50 26 38 64 74 111 95 116
31 42 27 12 -16 28 1 -9 37 46 73 60 60 68 41 91 101 189 228 209 245 295 246 220 208 129 46 117 139 94 81 85 46 59 111 83 107 114 43 3 21 64 47 83 65 55 83 14 7 151 184 183 88 126
85 12 5 -16 15 -9 -19 17 3 25 55 54 53 68 59 90 174 362 206 133 128 163 147 214 172 144 120 106 96 101 75 60 83 52 32 79 121 134 11 -22 22 41 18 46 64 -18 34 72 100 53 133 97 47 146
-12 -20 -28 3 -4 -6 4 -8 -6 -25 4 13 45 34 31 78 328 319 181 110 43 94 171 218 177 198 144 155 139 127 136 109 102 47 87 90 79 95 -10 -110 -100 135 161 70 51 96 138 78 75 85 125 150 161 188
-9 17 13 -3 -1 15 21 30 54 53 117 92 44 68 296 330 288 259 213 55 56 151 303 212 184 239 231 241 187 164 105 150 98 60 100 64 74 76 -45 -103 -184 -63 37 119 87 99 99 223 217 174 185 203 262 245
41 57 59 39 11 -1 -16 61 12 -63 -53 -27 17 121 273 249 185 171 56 126 204 172 185 230 199 183 266 201 180 180 124 82 79 37 64 100 104 34 -27 3 34 44 15 1 100 135 206 248 256 260 243 227 248 250
190 204 99 83 1 -19 -9 1 78 61 65 90 196 179 114 151 65 249 236 132 198 194 233 243 232 201 220 253 199 147 119 96 41 5 60 75 99 134 79 17 76 140 71 -2 157 174 236 249 267 295 273 226 238 256
189 216 208 144 123 51 43 15 136 199 141 151 120 137 215 316 206 159 83 201 182 173 189 167 113 142 125 138 155 129 88 64 39 35 47 31 74 232 171 38 -29 149 106 271 339 372 365 322 302 309 286 291 319 336
187 158 164 140 109 64 66 153 175 179 188 233 236 282 384 385 250 190 235 187 157 118 149 117 116 99 93 90 76 78 97 76 53 79 114 107 174 195 137 204 287 168 130 204 381 431 372 327 264 277 286 317 332 351
197 187 184 217 191 162 160 158 223 255 245 217 132 174 156 222 125 128 134 150 120 120 97 135 159 114 145 98 84 56 49 48 98 87 103 135 129 146 155 203 248 252 248 270 296 331 335 351 363 375 411 428 436 475
106 138 161 176 201 194 139 94 109 72 68 99 110 113 94 102 85 118 163 135 107 131 133 150 150 119 98 83 63 -4 -11 72 81 53 13 43 68 91 157 207 148 104 169 214 251 317 394 468 516 534 537 500 562 563
49 85 88 148 116 108 122 74 43 96 48 92 94 77 93 114 153 191 178 128 161 135 99 132 100 101 110 60 19 28 35 95 147 100 85 132 150 123 162 207 210 200 223 280 353 452 485 527 633 631 582 594 566 512
29 57 96 102 81 88 91 39 72 24 33 36 72 98 96 80 158 168 162 107 117 106 53 28 69 42 19 20 48 99 97 97 82 81 130 131 143 179 218 216 197 271 330 383 441 494 552 603 632 643 591 494 420 326
30 95 170 139 118 77 74 7 39 70 87 66 106 138 89 59 81 84 108 167 146 86 52 59 80 80 60 39 57 78 41 57 122 161 130 151 144 141 174 218 261 302 352 385 397 418 424 387 349 360 378 297 248 230
46 73 67 79 46 31 62 25 32 58 55 96 63 101 42 56 59 92 145 163 44 -8 68 60 82 132 96 56 85 100 74 120 159 150 145 154 165 181 213 241 262 281 317 325 313 286 249 229 238 202 172 158 178 171
65 57 69 46 24 -13 -6 29 37 37 94 74 78 95 97 100 108 116 154 166 184 126 40 38 76 108 136 121 127 78 86 109 156 184 208 230 240 236 242 255 266 271 275 240 224 223 214 186 144 113 93 103 129 108
34 66 98 9 -25 -56 -21 28 47 57 65 70 66 85 66 113 155 163 181 179 140 49 57 45 78 98 93 88 84 39 121 142 180 230 239 267 249 249 247 229 236 224 236 232 236 199 182 182 163 125 96 102 119 126
13 103 88 30 57 -15 -2 13 11 6 16 49 33 48 84 141 207 181 166 159 94 67 67 103 101 124 135 213 183 188 218 202 216 235 212 258 243 241 264 256 239 222 204 175 171 172 168 147 111 112 138 138 132 135
43 50 100 145 134 86 65 65 12 12 17 -4 28 57 82 117 185 218 218 192 121 148 123 113 145 150 190 263 238 228 201 252 263 261 229 216 238 226 222 182 187 212 215 184 152 141 124 100 107 121 133 123 139 138
44 35 65 71 59 35 63 76 38 54 36 49 52 62 77 80 88 88 69 174 149 127 97 105 128 146 159 157 201 234 207 222 222 205 200 207 210 189 190 195 168 157 161 139 118 117 115 105 120 126 126 132 134 141
33 67 66 45 43 29 60 63 63 54 44 65 83 77 54 35 11 24 68 65 35 55 30 29 41 59 108 171 193 177 174 185 196 200 158 149 194 194 175 163 144 130 113 104 122 126 121 113 108 109 103 104 98 96
-30 14 -33 -48 -38 -26 -15 -28 -33 -40 -48 -77 -54 -30 -43 -55 -29 -21 -5 4 8 -1 16 51 86 104 118 122 137 156 161 136 142 165 151 115 112 132 158 156 150 124 84 101 99 106 112 129 125 111 105 103 111 104
-15 -45 -37 -55 -36 -22 -45 -30 -26 -23 -24 -17 -22 -25 -16 -0 -0 -6 -19 -7 16 18 27 48 62 87 124 122 123 143 148 90 95 150 161 114 102 109 106 113 108 118 68 50 62 87 97 109 127 143 142 136 123 114
-21 -24 -6 6 -21 -19 -4 -6 -4 3 -1 -5 -14 1 13 24 19 10 13 26 30 38 36 42 60 81 82 86 90 80 78 94 100 95 90 122 131 119 99 94 99 63 58 74 74 64 64 87 108 124 133 115 89 73
2 1 10 13 20 25 -2 16 26 21 6 2 11 34 35 36 24 17 31 39 59 68 76 73 65 54 62 59 57 55 63 64 88 106 134 163 133 105 97 88 70 83 91 93 90 94 93 85 79 78 90 85 58 46
20 5 29 82 59 60 68 25 -15 -29 -44 -22 -1 -1 -0 4 1 19 29 41 45 69 81 85 83 66 81 93 104 96 68 37 60 85 105 84 81 78 67 71 71 75 78 94 91 77 75 71 74 78 67 66 51 61
54 39 64 101 82 46 17 -22 -10 -27 -34 -30 -44 -16 30 28 44 13 27 39 48 52 42 42 47 60 60 75 84 109 108 81 69 46 45 35 29 31 73 89 70 44 48 71 90 94 91 82 74 74 73 74 70 78
39 71 80 51 2 -51 -49 -56 -17 21 -0 -2 -18 6 -14 -9 41 52 56 21 39 67 82 78 77 56 46 40 44 60 71 78 67 71 66 52 50 62 63 69 57 59 64 70 74 77 85 90 69 69 68 61 56 58
51 36 8 -14 -66 -110 -79 -15 -15 -6 -23 -18 -43 -27 -20 9 17 8 17 13 58 71 55 52 56 48 57 53 56 52 52 38 52 48 62 66 75 61 56 57 57 64 76 72 59 60 65 75 75 70 61 53 52 56
55 42 18 -3 -26 -48 -76 -24 -21 -4 4 7 2 24 35 50 48 24 23 41 65 71 59 38 30 27 35 30 20 22 32 33 44 60 61 59 65 68 70 70 70 66 76 75 59 48 52 57 52 52 59 64 64 60

GFSWCAN_con_3kmhel_084.txt.gz
Helicity
49 33 21 3 -6 -10 6 28 43 48 48 44 38 33 11 -13 -3 8 -62 98 46 40 22 31 17 44 91 94 135 49 36 78 108 124 111 103 95 100 95 82 67 47 12 32 65 40 -29 57 41 216 169 148 24 40
30 20 10 9 1 3 16 28 37 39 36 36 38 33 34 67 27 40 146 225 170 165 118 15 0 -48 46 159 139 137 65 47 100 117 117 97 115 141 98 84 56 38 31 25 31 32 -83 -48 -5 142 91 119 85 52
-3 6 5 9 10 11 17 21 23 26 28 26 22 23 25 37 50 72 173 211 223 145 82 -12 38 62 168 170 218 110 42 5 40 89 89 73 109 123 130 125 79 79 66 35 14 32 5 -5 67 118 118 46 5 45
23 15 5 12 11 12 19 24 31 37 44 42 32 29 23 30 48 65 117 167 241 237 152 36 95 159 -28 38 144 78 63 76 69 56 78 81 105 108 108 114 163 71 52 32 -18 29 135 83 35 -25 34 86 -1 15
37 42 59 90 50 4 19 -8 -12 3 2 16 21 42 32 24 44 117 149 115 249 246 74 148 142 23 18 99 91 76 43 66 61 64 74 76 66 76 104 115 134 151 98 49 38 44 56 124 -30 54 32 45 -5 -24
69 41 42 15 -4 -3 16 10 14 27 40 31 30 22 6 21 43 188 155 125 108 115 153 140 22 29 80 39 16 54 48 84 70 24 20 13 86 64 56 70 24 92 84 90 72 12 -25 32 46 -27 17 69 46 74
15 17 7 -20 -12 0 23 34 40 44 45 44 51 52 24 33 130 242 216 91 183 183 172 139 44 35 63 100 -10 51 82 85 62 77 109 119 119 52 73 99 110 46 31 26 44 31 -2 -17 -34 4 66 98 136 111
14 7 6 11 -5 -2 13 6 18 30 46 56 29 40 48 80 144 247 249 84 215 278 187 151 89 66 137 172 107 66 47 109 86 99 124 100 95 115 91 41 43 14 67 79 48 61 10 23 52 75 114 149 144 186
-9 4 27 39 13 11 -3 -10 -5 13 48 43 24 59 109 221 256 239 65 65 193 215 173 127 40 79 132 128 95 115 78 84 81 29 72 73 81 107 56 46 7 60 115 94 93 71 29 16 83 96 112 165 199 206
0 5 16 144 105 160 105 11 56 30 72 74 234 274 235 248 184 465 238 152 133 127 154 48 84 143 200 207 164 120 138 108 104 102 112 142 135 126 154 145 127 101 151 136 54 41 57 96 121 170 186 203 194 223
34 69 42 127 187 176 121 204 243 300 348 368 325 280 260 224 375 227 180 101 89 62 75 105 82 34 84 159 132 104 127 131 110 101 146 146 113 123 169 154 135 118 133 129 68 54 44 143 206 215 214 231 207 225
48 53 57 99 96 122 197 73 153 232 291 304 320 336 379 266 239 132 105 70 98 57 84 98 84 125 167 201 142 125 148 119 125 125 134 134 112 148 153 117 112 110 104 101 104 127 166 229 276 292 265 273 271 302
45 71 37 39 95 151 157 138 147 181 239 211 194 161 140 181 131 158 49 49 96 91 98 146 245 177 142 125 161 123 86 69 116 106 125 152 128 117 107 56 54 65 85 85 102 145 201 268 283 303 328 330 367 442
77 66 11 35 114 97 144 115 102 96 117 149 129 48 72 107 79 129 151 107 94 117 96 132 148 78 83 108 65 74 75 102 94 77 58 126 127 91 56 64 43 87 107 113 123 185 250 348 349 372 378 393 471 521
61 69 60 83 62 46 83 2 22 -14 19 88 87 31 66 119 105 179 151 121 158 188 148 122 147 140 187 125 131 109 38 -27 36 59 67 53 90 88 76 83 83 103 120 151 180 230 334 437 496 493 446 460 452 516
74 49 60 111 14 34 32 6 51 20 18 40 28 62 127 135 191 188 226 198 225 232 216 188 97 81 86 76 64 60 18 1 3 -6 15 34 78 92 90 107 119 124 153 200 246 278 285 329 382 423 369 393 459 461
18 48 82 72 4 17 42 0 7 6 13 27 70 159 115 104 149 192 203 221 283 214 171 153 119 93 103 65 75 98 32 18 26 71 97 52 117 134 140 133 129 141 165 215 257 276 323 346 406 403 479 462 488 472
47 81 69 27 13 3 63 43 -4 -10 95 127 112 180 178 158 184 181 219 228 173 143 139 125 104 60 51 23 53 104 91 78 113 161 131 141 141 134 140 161 176 213 255 292 320 350 350 340 375 359 332 317 346 320
-4 26 35 -1 -31 -17 3 14 54 68 93 83 83 79 99 125 133 157 174 182 178 127 29 30 10 34 59 85 112 140 110 93 97 109 119 136 141 171 200 220 230 242 267 276 285 294 267 227 211 188 188 166 186 155
9 63 61 44 -16 -15 10 27 75 44 69 56 56 49 49 95 143 155 182 197 163 113 80 50 92 149 162 158 117 57 53 73 82 110 112 119 139 186 181 172 173 170 192 190 206 188 182 193 184 153 137 119 106 103
-9 39 55 17 91 58 30 51 63 54 46 55 53 59 57 137 202 181 207 241 199 189 191 172 153 133 129 123 133 118 131 115 136 109 95 120 128 154 118 109 125 132 138 132 150 163 154 138 116 125 138 133 117 104
67 87 72 111 95 68 54 92 65 47 63 39 56 52 49 80 129 158 152 219 147 210 176 159 159 138 142 164 132 137 113 144 166 158 145 111 154 158 113 87 107 151 152 152 135 132 121 106 112 126 141 124 123 115
50 44 57 73 23 15 48 62 25 61 36 54 53 45 46 44 67 70 51 118 159 171 150 125 136 129 141 131 143 160 143 141 175 172 153 142 146 132 126 143 125 108 128 143 110 102 105 106 123 115 102 107 107 110
29 54 85 64 53 26 49 42 60 41 20 29 37 36 51 45 40 49 64 102 131 114 100 96 75 70 91 122 131 136 126 114 153 176 135 141 169 168 149 154 159 142 108 89 104 104 96 96 88 89 85 97 95 90
20 71 61 47 72 26 29 55 65 23 22 21 2 -1 -2 -15 -7 -9 -2 16 25 45 57 54 61 69 70 78 94 108 118 121 139 162 149 127 113 121 161 160 160 142 92 99 101 99 89 80 77 73 78 81 87 94
-17 4 -28 -32 -20 -19 -29 -20 -33 -45 -52 -30 -35 -52 -36 -14 -4 -5 -16 -5 17 32 49 63 67 80 107 97 88 102 106 92 94 157 134 121 108 96 91 98 102 112 105 82 80 91 85 76 75 80 82 85 93 96
0 -26 -18 -21 -34 -28 -21 -18 -28 -21 -21 -37 -41 -18 -6 5 6 -5 -9 9 23 33 52 67 74 79 74 77 74 49 51 63 71 67 57 90 99 90 75 70 76 72 57 56 57 53 59 60 65 68 71 69 54 45
-5 -32 12 13 22 18 -2 -10 -8 -7 -31 -46 -30 -27 -20 -21 -28 -20 -1 18 44 49 62 70 66 56 66 64 37 30 37 28 30 41 72 117 121 121 112 94 82 75 55 54 53 64 67 64 59 52 57 59 47 46
29 7 44 101 94 90 87 39 -10 -27 -58 -37 -28 -42 -53 -50 -34 1 26 52 55 70 72 70 70 50 57 54 57 50 46 57 65 77 79 67 68 94 82 64 69 71 64 76 82 69 64 60 53 60 69 76 70 71
40 24 83 124 126 81 53 1 -15 -47 -60 -72 -80 -53 20 31 59 49 64 74 84 80 61 57 48 59 51 55 54 72 76 62 50 44 43 37 28 23 27 41 50 61 65 82 93 102 107 105 94 91 90 85 75 72
62 99 143 120 91 3 -27 -17 -9 13 -5 0 -9 12 -2 12 41 69 75 55 68 65 61 55 56 46 45 44 42 45 57 67 55 51 46 38 32 40 41 45 40 44 58 67 69 68 69 73 72 75 76 67 61 62
80 54 40 33 -17 -65 -26 -26 -31 -16 -43 -27 -24 1 18 41 49 36 47 47 63 64 50 41 45 46 35 25 27 22 24 21 41 30 30 31 36 34 41 45 44 50 69 72 69 68 72 75 73 65 57 48 47 45
97 93 59 31 -10 -42 -54 -14 -18 -14 -15 -9 1 28 43 60 58 50 49 56 51 46 46 44 39 37 39 38 31 28 29 21 24 37 42 43 41 40 41 44 49 57 66 69 68 63 63 62 55 49 48 45 42 42